Regional Weather Roundup
Issued by NWS

Home | Current Version | Previous Version | Graphics & Text | Print | Product List | Glossary Off
Versions: 1 2 3 4 5 6 7 8 9 10 11 12 13 14 15 16 17 18 19 20 21 22 23 24 25 26 27 28 29 30 31 32 33 34 35 36 37 38 39 40 41 42 43 44 45 46 47 48 49 50

521
ASUS43 KDMX 300206
RWRIA

WEATHER ROUNDUP FOR IOWA
NATIONAL WEATHER SERVICE DES MOINES IA
900 PM CDT MON MAY 29 2017

NOTE: "FAIR" INDICATES FEW OR NO CLOUDS BELOW 12,000 FEET WITH NO
SIGNIFICANT WEATHER AND/OR OBSTRUCTIONS TO VISIBILITY.

* - THESE STATIONS ARE NOT NWS STATIONS...THUS NOT UNDER NWS
QUALITY CONTROL.  THEY ALSO DO NOT REPORT WEATHER SUCH
AS PRECIPITATION OR FOG.

IAZ001>003-012>014-020>022-031>034-043>046-300300-
   NORTHWEST IOWA

CITY           SKY/WX    TMP DP  RH WIND       PRES   REMARKS
CARROLL *      PTCLDY    64  45  48 NW13      29.98S
CHEROKEE *     MOCLDY    60  43  52 N8        29.99R
DENISON *      CLEAR     63  43  48 NW8G15    30.01S
LE MARS *      CLEAR     63  41  45 NW9       30.00R
ORANGE CITY *  CLEAR     59  45  58 NW6       29.99R
SHELDON *      CLEAR     59  41  51 N7        29.97R
SIOUX CITY     CLEAR     61  43  51 NW9       30.00R
SPENCER        MOCLDY    57  46  66 NW8       29.97R
STORM LAKE *   PTCLDY    61  41  48 NW10      29.99S
$$

IAZ055>058-069>071-079>083-090>094-300300-
   SOUTHWEST IOWA

CITY           SKY/WX    TMP DP  RH WIND       PRES   REMARKS
ATLANTIC *     CLEAR     64  43  45 NW10      30.00R
AUDUBON *      PTCLDY    63  43  48 NW7       30.01R
CLARINDA *     CLEAR     66  39  37 NW7       30.02R
COUNCIL BLFS * MOCLDY    64  41  42 NW9       30.01R
CRESTON *      PTCLDY    63  43  48 NW12      30.00R
HARLAN  *      CLEAR     63  43  48 NW8       30.04R
LAMONI         CLEAR     63  41  44 NW8       29.98R
RED OAK *      CLEAR     66  41  39 N9        30.01R
SHENANDOAH *   CLEAR     68  39  34 NW6       30.01R
$$

IAZ047>049-059>061-072>074-084-300300-
   CENTRAL IOWA

CITY           SKY/WX    TMP DP  RH WIND       PRES   REMARKS
AMES           MOCLDY    62  47  57 N10       29.95R
ANKENY *       MOCLDY    66  43  42 NW5       29.96R
BOONE *        CLOUDY    63 N/A N/A NW7       29.95R
CHARITON *     CLEAR     63  43  48 NW7       29.97R
DES MOINES     PTCLDY    68  40  35 NW9       29.95R
GRINNELL*      CLEAR     63  43  47 NW9       29.95S
KNOXVILLE *    CLEAR     64  43  45 NW7       29.94R
MARSHALLTOWN   PTCLDY    59  47  64 NW8       29.94R
NEWTON *       CLEAR     63  43  48 N9        29.94R
PELLA *        CLEAR     65  41  41 NW7       29.95S
PERRY *        MOCLDY    65  39  38 NW15      29.97R
$$

IAZ004>006-015-016-023>025-035-036-300300-
   NORTH CENTRAL IOWA

CITY           SKY/WX    TMP DP  RH WIND       PRES   REMARKS
ALGONA *       CLOUDY    61  48  63 NW9       29.96R
CLARION *      CLEAR     59  48  67 NW10      29.95S
ESTHERVILLE    LGT RAIN  53  49  86 NW21G36   29.97R
FORT DODGE *   CLOUDY    63  43  48 NW7       29.97S
MASON CITY     PTCLDY    57  46  66 NW14      29.94S
FOREST CITY *    N/A     55  41  58 NW9       29.93F
WEBSTER CITY * MOCLDY    61  45  55 NW7       29.94R
IOWA FALLS *     N/A     61  47  59 NW10      29.96R
$$

IAZ007>011-017>019-026>030-037>042-050>054-066-300300-
   NORTHEAST IOWA

CITY           SKY/WX    TMP DP  RH WIND       PRES   REMARKS
CEDAR RAPIDS   CLEAR     62  45  53 NW9       29.91R
CHARLES CITY * CLEAR     59  43  55 NW14      29.92S
CLINTON *      MOCLDY    64  47  53 NW10      29.91R
DECORAH *      PTCLDY    59  46  63 W7G14     29.88S
DUBUQUE        CLEAR     59  45  59 NW8       29.90R
MONTICELLO *   CLEAR     64  45  48 NW10G17   29.90R
OELWEIN *      CLEAR     61  45  55 NW14      29.92R
WATERLOO       MOCLDY    61  42  49 NW12      29.91R
$$

IAZ064-065-067-068-078-300300-
   EAST CENTRAL IOWA

CITY           SKY/WX    TMP DP  RH WIND       PRES   REMARKS
DAVENPORT      PTCLDY    65  44  46 NW10      29.91R
IOWA CITY      PTCLDY    66  44  45 W7        29.93R
MT. PLEASANT * CLEAR     67  36  31 W6        29.93S
MUSCATINE *    PTCLDY    64  45  48 NW6       29.92R
QUAD CITIES    PTCLDY    67  43  41 W8        29.90R
$$

IAZ062-063-075>077-085>089-095>099-300300-
   SOUTHEAST IOWA

CITY           SKY/WX    TMP DP  RH WIND       PRES   REMARKS
BURLINGTON     CLEAR     67  41  38 W5        29.93R
FAIRFIELD *    MOCLDY    66  39  37 W7        29.93S
FORT MADISON * CLEAR     66  41  39 W3        29.95R
KEOKUK *       CLEAR     66  43  42 W3        29.94R
OSKALOOSA *      N/A     65  41  41 NW7       29.95R
CENTERVILLE *    N/A     63  41  45 CALM      29.98R
OTTUMWA        CLEAR     62  41  46 W6        29.94R
WASHINGTON *   MOCLDY    66  45  45 NW8       29.94R
$$

ABBREVIATIONS USED IN REMARKS
   TC - TEMPERATURES IN CELSIUS
  WCI - WIND CHILL INDEX
   HX - HEAT INDEX
  VSB - VISIBILITY
$$





USA.gov is the U.S. government's official web portal to all federal, state and local government web resources and services.